Pecos, TX

9:46 PM CDT on October 18, 2017 (GMT -0500)
Pecos Municipal

Weather History for KPEQ - May, 2013

Change the Weather History Date:

Wednesday, May 8, 2013

  Actual Average Record
Temperature  
Mean Temperature 70 °F -  
Max Temperature 89 °F 90 °F 103 °F (2011)
Min Temperature 50 °F 53 °F 41 °F (1915)
Cooling Degree Days 4    
Growing Degree Days 20 (Base 50)    
Moisture  
Dew Point 35 °F    
Average Humidity 37    
Maximum Humidity 78    
Minimum Humidity 11    
Precipitation  
Precipitation 0.00 in - - ()
Sea Level Pressure  
Sea Level Pressure 29.91 in    
Wind  
Wind Speed 7 mph (West)    
Max Wind Speed 17 mph    
Max Gust Speed 26 mph    
Visibility 10 miles    
Events      
Averages and records for this station are not official NWS values.
T = Trace of Precipitation, MM = Missing Value Source: NWS Daily Summary

Daily Weather History Graph

Daily Weather History Graph

Search for Another Location

Airport or City:

Trip Planner

Search our weather history database for the weather conditions in past years. The results will help you decide how hot, cold, wet, or windy it might be!

Date:

Astronomy

May. 08, 2013 Rise Set
Actual Time 7:02 AM CDT 8:38 PM CDT
Civil Twilight 6:36 AM CDT 9:04 PM CDT
Nautical Twilight 6:05 AM CDT 9:36 PM CDT
Astronomical Twilight 5:32 AM CDT 10:09 PM CDT
Moon 6:07 AM CDT (5/8) 7:41 PM CDT (5/8)
Length of Visible Light 14h 28m
Length of Day
13h 35m
Waning Crescent, 2% of the Moon is Illuminated
May 8
Waning Crescent
May 9
New
May 17
First Quarter
May 24
Full
May 31
Last Quarter

Hourly Weather History & Observations

Time (CDT) Temp. Dew Point Humidity Pressure Visibility Wind Dir Wind Speed Gust Speed Precip Events Conditions
12:35 AM 68.5 °F 43.3 °F 40% 29.88 in 10.0 mi East 4.6 mph - N/A   Clear
1:15 AM 64.9 °F 46.0 °F 50% 29.88 in 10.0 mi East 6.9 mph - N/A   Clear
2:15 AM 63.5 °F 51.1 °F 64% 29.88 in 10.0 mi East 5.8 mph - N/A   Clear
2:35 AM 61.9 °F 50.9 °F 67% 29.88 in 10.0 mi ESE 5.8 mph - N/A   Clear
2:55 AM 60.4 °F 50.7 °F 70% 29.88 in 10.0 mi East 4.6 mph - N/A   Clear
3:15 AM 59.0 °F 50.2 °F 73% 29.88 in 10.0 mi ESE 4.6 mph - N/A   Clear
3:35 AM 58.3 °F 49.8 °F 73% 29.88 in 10.0 mi Calm Calm - N/A   Clear
3:55 AM 58.3 °F 50.5 °F 75% 29.88 in 10.0 mi ESE 4.6 mph - N/A   Clear
4:15 AM 56.3 °F 49.5 °F 78% 29.88 in 10.0 mi South 3.5 mph - N/A   Clear
4:35 AM 54.0 °F 40.6 °F 61% 29.88 in 10.0 mi SW 5.8 mph - N/A   Clear
4:55 AM 52.2 °F 36.0 °F 54% 29.89 in 10.0 mi West 4.6 mph - N/A   Clear
5:15 AM 50.9 °F 34.7 °F 54% 29.90 in 10.0 mi WNW 3.5 mph - N/A   Clear
5:35 AM 51.1 °F 36.5 °F 57% 29.89 in 10.0 mi Calm Calm - N/A   Clear
5:55 AM 51.3 °F 36.9 °F 58% 29.90 in 10.0 mi West 3.5 mph - N/A   Clear
6:15 AM 50.9 °F 37.6 °F 60% 29.90 in 10.0 mi West 4.6 mph - N/A   Clear
6:35 AM 50.4 °F 38.7 °F 64% 29.90 in 10.0 mi WSW 3.5 mph - N/A   Clear
6:55 AM 50.2 °F 38.5 °F 64% 29.91 in 10.0 mi Calm Calm - N/A   Clear
7:15 AM 52.7 °F 41.9 °F 67% 29.92 in 10.0 mi West 4.6 mph - N/A   Clear
7:35 AM 54.1 °F 37.4 °F 53% 29.92 in 10.0 mi West 8.1 mph - N/A   Clear
7:55 AM 55.4 °F 35.8 °F 48% 29.93 in 10.0 mi West 5.8 mph - N/A   Clear
8:15 AM 56.3 °F 35.6 °F 46% 29.95 in 10.0 mi West 3.5 mph - N/A   Clear
8:55 AM 63.7 °F 32.2 °F 31% 29.96 in 10.0 mi West 9.2 mph - N/A   Clear
9:15 AM 67.5 °F 32.4 °F 27% 29.97 in 10.0 mi WNW 8.1 mph - N/A   Clear
9:35 AM 71.4 °F 32.9 °F 24% 29.98 in 10.0 mi WNW 6.9 mph - N/A   Clear
9:55 AM 73.8 °F 32.2 °F 22% 29.98 in 10.0 mi West 8.1 mph - N/A   Clear
10:15 AM 77.2 °F 32.0 °F 19% 29.98 in 10.0 mi WNW 8.1 mph - N/A   Clear
10:35 AM 80.1 °F 32.0 °F 17% 29.98 in 10.0 mi NW 17.3 mph 20.7 mph N/A   Clear
10:55 AM 81.0 °F 32.0 °F 17% 29.98 in 10.0 mi West 11.5 mph - N/A   Clear
11:15 AM 81.5 °F 32.0 °F 17% 29.98 in 10.0 mi West 15.0 mph 23.0 mph N/A   Clear
11:35 AM 82.4 °F 32.0 °F 16% 29.98 in 10.0 mi West 11.5 mph 18.4 mph N/A   Clear
11:55 AM 83.5 °F 31.8 °F 16% 29.98 in 10.0 mi West 15.0 mph 21.9 mph N/A   Clear
12:35 PM 83.7 °F 31.3 °F 15% 29.98 in 10.0 mi West 13.8 mph 26.5 mph N/A   Clear
2:55 PM 87.8 °F 30.4 °F 13% 29.92 in 10.0 mi West 17.3 mph 24.2 mph N/A   Clear
3:35 PM 88.7 °F 28.6 °F 12% 29.91 in 10.0 mi WSW 16.1 mph 21.9 mph N/A   Clear
5:35 PM 89.1 °F 27.1 °F 11% 29.86 in 10.0 mi WSW 11.5 mph 24.2 mph N/A   Clear
5:55 PM 88.9 °F 27.3 °F 11% 29.85 in 10.0 mi WSW 11.5 mph - N/A   Clear
7:15 PM 86.9 °F 26.4 °F 11% 29.84 in 10.0 mi West 15.0 mph - N/A   Clear
7:35 PM 85.8 °F 25.7 °F 11% 29.84 in 10.0 mi West 12.7 mph 20.7 mph N/A   Clear
7:55 PM 84.0 °F 26.2 °F 12% 29.84 in 10.0 mi WNW 12.7 mph 17.3 mph N/A   Clear
8:15 PM 82.8 °F 25.5 °F 12% 29.84 in 10.0 mi WNW 15.0 mph - N/A   Clear
8:35 PM 80.6 °F 24.8 °F 13% 29.85 in 10.0 mi WNW 11.5 mph - N/A   Clear
9:55 PM 75.2 °F 23.5 °F 15% 29.86 in 10.0 mi NNW 8.1 mph - N/A   Clear
10:15 PM 75.2 °F 23.7 °F 15% 29.88 in 10.0 mi North 5.8 mph - N/A   Clear
10:35 PM 75.2 °F 23.5 °F 15% 29.88 in 10.0 mi NNW 5.8 mph - N/A   Clear
11:55 PM 65.8 °F 20.8 °F 18% 29.91 in 10.0 mi SE 8.1 mph - N/A   Clear